EW9926 Weather Reports


time (UTC)temp
C
wind
direction
speed
KPH
gust
KPH
rain 1hr
cm
rain 24hr
cm
rain mn
cm
humidity
%
barometer
mb
20260504185028 20 248 1.6 9.7 0.00 0.00 0.00 37 1010.2
20260504184535 21 270 3.2 9.7 0.00 0.00 0.00 38 1010.4
20260504184031 21 276 4.8 9.7 0.00 0.00 0.00 39 1010.5
20260504183526 20 232 1.6 11.3 0.00 0.00 0.00 37 1010.4
20260504183033 20 263 3.2 12.9 0.00 0.00 0.00 36 1010.6
20260504182525 20 255 4.8 12.9 0.00 0.00 0.00 36 1010.6
20260504182024 20 279 1.6 8.0 0.00 0.00 0.00 38 1010.6
20260504181523 20 264 4.8 9.7 0.00 0.00 0.00 37 1010.7
20260504181026 20 272 4.8 16.1 0.00 0.00 0.00 36 1010.8
20260504180522 20 280 3.2 16.1 0.00 0.00 0.00 39 1010.9
20260504180023 20 269 4.8 9.7 0.00 0.00 0.00 39 1011.0
20260504175520 20 238 4.8 9.7 0.00 0.00 0.00 39 1011.1
20260504175020 20 230 3.2 12.9 0.00 0.00 0.00 35 1011.2
20260504174520 20 233 3.2 12.9 0.00 0.00 0.00 39 1011.2
20260504174023 20 251 4.8 9.7 0.00 0.00 0.00 37 1011.2
20260504173522 20 239 4.8 11.3 0.00 0.00 0.00 39 1011.3
20260504173019 20 268 4.8 11.3 0.00 0.00 0.00 36 1011.3
20260504172521 20 257 4.8 9.7 0.00 0.00 0.00 36 1011.4
20260504172017 20 249 1.6 6.4 0.00 0.00 0.00 44 1011.4
20260504171517 20 241 1.6 6.4 0.00 0.00 0.00 39 1011.4
20260504171015 20 230 3.2 8.0 0.00 0.00 0.00 40 1011.5
20260504170515 19 236 3.2 8.0 0.00 0.00 0.00 39 1011.6
20260504151054 17 266 3.2 9.7 0.00 0.00 0.00 47 1013.1
20260504150554 17 259 3.2 9.7 0.00 0.00 0.00 48 1013.1
20260504141043 15 243 1.6 11.3 0.00 0.00 0.00 52 1013.3
20260504140541 15 224 3.2 11.3 0.00 0.00 0.00 53 1013.3
20260504130528 13 231 3.2 6.4 0.00 0.00 0.00 61 1013.6
20260504110507 8 263 0.0 0.0 0.00 0.00 0.00 63 1014.3
20260504100559 7 263 0.0 0.0 0.00 0.00 0.00 58 1014.2
20260504081557 7 263 0.0 3.2 0.00 0.00 0.00 56 1014.2
20260504081054 8 263 0.0 3.2 0.00 0.00 0.00 56 1014.2
20260504080554 7 263 0.0 3.2 0.00 0.00 0.00 55 1014.2
20260504050534 8 263 1.6 3.2 0.00 0.00 0.00 54 1014.0
20260504045533 8 263 1.6 3.2 0.00 0.00 0.00 53 1014.1
20260504045032 8 263 1.6 3.2 0.00 0.00 0.00 53 1014.0
20260504044531 8 263 1.6 3.2 0.00 0.00 0.00 53 1014.0
20260504044031 8 263 1.6 3.2 0.00 0.00 0.00 53 1014.0
20260504043530 9 263 0.0 3.2 0.00 0.00 0.00 53 1014.0
20260504043039 9 263 1.6 3.2 0.00 0.00 0.00 52 1013.9
20260504042528 9 263 0.0 3.2 0.00 0.00 0.00 52 1013.8
20260504042027 9 263 0.0 3.2 0.00 0.00 0.00 51 1013.7
20260504041529 9 263 1.6 3.2 0.00 0.00 0.00 51 1013.6
20260504041026 9 263 1.6 3.2 0.00 0.00 0.00 52 1013.6
20260504040524 9 263 1.6 3.2 0.00 0.00 0.00 51 1013.5
20260504040024 9 263 1.6 3.2 0.00 0.00 0.00 51 1013.5
20260504035524 9 263 1.6 3.2 0.00 0.00 0.00 50 1013.4
20260504035023 9 263 1.6 3.2 0.00 0.00 0.00 50 1013.5
20260504034523 9 263 0.0 3.2 0.00 0.00 0.00 50 1013.4
20260504034026 9 263 1.6 3.2 0.00 0.00 0.00 50 1013.4
20260504033523 9 263 1.6 3.2 0.00 0.00 0.00 50 1013.4
20260504033023 9 263 1.6 3.2 0.00 0.00 0.00 50 1013.3
20260504032523 9 263 1.6 3.2 0.00 0.00 0.00 50 1013.3
20260504032023 9 263 1.6 3.2 0.00 0.00 0.00 49 1013.3
20260504031522 10 263 0.0 3.2 0.00 0.00 0.00 50 1013.3
20260504031024 10 263 0.0 3.2 0.00 0.00 0.00 50 1013.3
20260504030521 10 263 1.6 3.2 0.00 0.00 0.00 48 1013.2
20260504030022 10 263 1.6 4.8 0.00 0.00 0.00 49 1013.2
20260504025521 10 263 1.6 4.8 0.00 0.00 0.00 48 1013.2
20260504025024 10 263 1.6 3.2 0.00 0.00 0.00 48 1013.2
20260504024521 10 263 1.6 4.8 0.00 0.00 0.00 48 1013.2
20260504024022 10 263 1.6 4.8 0.00 0.00 0.00 48 1013.1
20260504023521 10 263 1.6 3.2 0.00 0.00 0.00 48 1013.1
20260504023021 10 263 1.6 3.2 0.00 0.00 0.00 48 1013.2
20260504022520 10 263 1.6 3.2 0.00 0.00 0.00 48 1013.2
20260504022020 10 263 0.0 3.2 0.00 0.00 0.00 48 1013.2
20260504021521 10 263 0.0 3.2 0.00 0.00 0.00 48 1013.2
20260504021020 10 263 0.0 3.2 0.00 0.00 0.00 48 1013.2
20260504020519 10 263 1.6 3.2 0.00 0.00 0.00 48 1013.2
20260504020032 10 263 1.6 3.2 0.00 0.00 0.00 48 1013.1
20260504015520 10 263 1.6 3.2 0.00 0.00 0.00 48 1013.1
20260504015020 10 263 0.0 3.2 0.00 0.00 0.00 47 1013.1
20260504014519 10 263 0.0 3.2 0.00 0.00 0.00 47 1013.1
20260504014019 10 263 1.6 3.2 0.00 0.00 0.00 47 1013.1
20260504013519 10 263 1.6 3.2 0.00 0.00 0.00 46 1013.0
20260504013022 10 263 1.6 3.2 0.00 0.00 0.00 47 1013.0
20260504012519 11 263 1.6 3.2 0.00 0.00 0.00 46 1013.0
20260504012019 11 263 1.6 3.2 0.00 0.00 0.00 46 1013.0
20260504011519 11 263 1.6 3.2 0.00 0.00 0.00 46 1012.9
20260504011021 11 263 1.6 3.2 0.00 0.00 0.00 46 1012.9
20260504010518 11 263 1.6 3.2 0.00 0.00 0.00 45 1012.7
20260504010018 11 263 0.0 3.2 0.00 0.00 0.00 45 1012.7
20260504005518 11 263 0.0 3.2 0.00 0.00 0.00 45 1012.6
20260504005018 11 263 1.6 3.2 0.00 0.00 0.00 44 1012.5
20260504004534 11 263 1.6 3.2 0.00 0.00 0.00 43 1012.5
20260504004020 11 263 1.6 3.2 0.00 0.00 0.00 43 1012.5
20260504003517 11 263 1.6 3.2 0.00 0.00 0.00 43 1012.4
20260504003018 11 263 1.6 3.2 0.00 0.00 0.00 42 1012.3
20260504002517 12 263 1.6 3.2 0.00 0.00 0.00 42 1012.3
20260504002017 12 263 0.0 3.2 0.00 0.00 0.00 42 1012.3
20260504001530 12 263 1.6 3.2 0.00 0.00 0.00 41 1012.2
20260504001017 12 263 1.6 3.2 0.00 0.00 0.00 42 1012.1
20260504000517 12 263 1.6 3.2 0.00 0.00 0.00 40 1012.0
20260504000017 12 263 0.0 3.2 0.00 0.00 0.00 40 1012.0
20260503235516 12 263 0.0 3.2 0.00 0.00 0.00 40 1011.9
20260503235015 13 263 1.6 4.8 0.00 0.00 0.00 39 1011.9
20260503234518 13 263 1.6 4.8 0.00 0.00 0.00 38 1011.9
20260503234016 13 263 1.6 4.8 0.00 0.00 0.00 37 1011.9
20260503233518 13 263 1.6 6.4 0.00 0.00 0.00 37 1011.8
20260503233015 13 263 3.2 6.4 0.00 0.00 0.00 36 1011.7
20260503232518 13 267 1.6 9.7 0.00 0.00 0.00 36 1011.7
20260503232015 13 268 1.6 9.7 0.00 0.00 0.00 36 1011.7
20260503231515 13 268 3.2 9.7 0.00 0.00 0.00 37 1011.7
20260503231018 13 286 3.2 9.7 0.00 0.00 0.00 36 1011.7
20260503230515 13 280 3.2 9.7 0.00 0.00 0.00 35 1011.6
20260503230017 13 269 4.8 11.3 0.00 0.00 0.00 34 1011.5
20260503225514 14 280 6.4 11.3 0.00 0.00 0.00 34 1011.5
20260503225014 14 274 4.8 9.7 0.00 0.00 0.00 35 1011.5
20260503224514 14 276 1.6 6.4 0.00 0.00 0.00 35 1011.5
20260503224014 14 283 1.6 9.7 0.00 0.00 0.00 36 1011.6
20260503223519 14 278 1.6 9.7 0.00 0.00 0.00 34 1011.6
20260503223013 14 298 4.8 9.7 0.00 0.00 0.00 34 1011.5
20260503222513 14 259 3.2 9.7 0.00 0.00 0.00 34 1011.5
20260503222013 14 305 3.2 6.4 0.00 0.00 0.00 34 1011.5
20260503221513 14 274 3.2 12.9 0.00 0.00 0.00 33 1011.5
20260503221013 14 274 6.4 12.9 0.00 0.00 0.00 33 1011.5
20260503220513 15 273 4.8 11.3 0.00 0.00 0.00 33 1011.3
20260503220026 15 318 4.8 11.3 0.00 0.00 0.00 32 1011.4
20260503215513 15 274 4.8 11.3 0.00 0.00 0.00 32 1011.4
20260503215012 15 276 3.2 9.7 0.00 0.00 0.00 34 1011.4
20260503214522 15 280 4.8 9.7 0.00 0.00 0.00 32 1011.4
20260503214012 15 335 4.8 12.9 0.00 0.00 0.00 33 1011.3
20260503213512 15 313 4.8 12.9 0.00 0.00 0.00 31 1011.3
20260503213025 15 303 6.4 12.9 0.00 0.00 0.00 30 1011.3
20260503212511 15 263 4.8 11.3 0.00 0.00 0.00 35 1011.3
20260503212015 15 307 3.2 11.3 0.00 0.00 0.00 34 1011.2
20260503211513 14 339 4.8 9.7 0.00 0.00 0.00 31 1011.2
20260503211010 14 291 4.8 9.7 0.00 0.00 0.00 33 1011.3
20260503210510 14 310 4.8 14.5 0.00 0.00 0.00 30 1011.3
20260503210014 14 278 4.8 14.5 0.00 0.00 0.00 31 1011.3
20260503205514 14 268 4.8 14.5 0.00 0.00 0.00 33 1011.4
20260503205012 14 313 4.8 11.3 0.00 0.00 0.00 35 1011.5
20260503204506 13 300 3.2 11.3 0.00 0.00 0.00 32 1011.5
20260503204005 13 300 4.8 12.9 0.00 0.00 0.00 33 1011.7
20260503203508 13 5 6.4 14.5 0.00 0.00 0.00 33 1011.5
20260503203008 13 10 6.4 16.1 0.00 0.00 0.00 34 1011.5
20260503202509 13 286 4.8 16.1 0.00 0.00 0.00 34 1011.6
20260503202007 13 303 6.4 12.9 0.00 0.00 0.00 37 1011.6
20260503201505 13 297 6.4 12.9 0.00 0.00 0.00 33 1011.7
20260503201004 13 306 4.8 14.5 0.00 0.00 0.00 34 1011.7
20260503200503 13 330 4.8 16.1 0.00 0.00 0.00 33 1011.9
20260503200003 13 301 4.8 17.7 0.00 0.00 0.00 34 1012.0
20260503195503 13 272 8.0 17.7 0.00 0.00 0.00 37 1011.9
20260503195003 13 334 9.7 14.5 0.00 0.00 0.00 33 1011.9
20260503194502 13 308 6.4 14.5 0.00 0.00 0.00 36 1012.0
20260503194002 13 276 8.0 17.7 0.00 0.00 0.00 35 1012.1
20260503193503 13 316 6.4 17.7 0.00 0.00 0.00 35 1012.0
20260503193003 13 309 6.4 12.9 0.00 0.00 0.00 37 1012.2
20260503192600 13 275 6.4 16.1 0.00 0.00 0.00 38 1012.2
20260503192101 13 314 6.4 16.1 0.00 0.00 0.00 35 1012.2
20260503191612 13 284 6.4 14.5 0.00 0.00 0.00 38 1012.3
20260503191058 12 306 6.4 12.9 0.00 0.00 0.00 38 1012.3
20260503190557 12 286 6.4 16.1 0.00 0.00 0.00 36 1012.3
20260503190101 13 293 9.7 16.1 0.00 0.00 0.00 37 1012.3
20260503185556 13 289 6.4 12.9 0.00 0.00 0.00 37 1012.3